Regional Weather Roundup
Issued by NWS Grand Forks, ND

Home | Current Version | Previous Version | Text Only | Print | Product List | Glossary On
Versions: 1 2 3 4 5 6 7 8 9 10 11 12 13 14 15 16 17 18 19 20 21 22 23 24 25 26 27 28 29 30 31 32 33 34 35 36 37 38 39 40 41 42 43 44 45 46 47 48 49 50
000
ASUS43 KFGF 262231
RWRFGF
PRAIRIE TO PINES  WEATHER ROUNDUP
NATIONAL WEATHER SERVICE EASTERN NORTH DAKOTA/GRAND FORKS ND
500 PM CDT THU MAY 26 2016

 **SATELLITE DATA USED TO AUGMENT SKY COVER AT AUTOMATED STATIONS**
 *****  WEATHER ACROSS EASTERN NORTH DAKOTA  *****

CITY           SKY/WX    TMP DP  RH WIND       PRES   REMARKS
GRAND FORKS    MOSUNNY   70  54  56 W14G23    29.74S
GRAND FRKS AFB MOSUNNY   70  54  57 W16G22    29.74S
GRAND FRKS NWS   N/A     70 N/A N/A W14         N/A
DEVILS LAKE    PTSUNNY   65  53  65 NW10      29.78F
FARGO          MOSUNNY   76  51  41 W16G23    29.76F
WAHPETON ARPT  CLEAR     77  43  29 NW14G20   29.76F
$$

 ***** WEATHER ACROSS CENTRAL AND WESTERN NORTH DAKOTA  *****

CITY           SKY/WX    TMP DP  RH WIND       PRES   REMARKS
BISMARCK       PTSUNNY   71  48  43 NW13G23   29.76F
MINOT          PTSUNNY   71  52  50 N9        29.77F
JAMESTOWN      MOSUNNY   74  50  42 SW12      29.75F
MINOT AFB      PTSUNNY   65  55  70 NE15      29.77F
GARRISON         N/A     54  50  86 N9        29.79F
WILLISTON      LGT RAIN  63  49  60 NW8       29.79S
DICKINSON      PTSUNNY   64  39  39 W10       29.78F
HETTINGER      CLOUDY    63  42  46 W16G26    29.83S
$$

 *****  OTHER AIRPORT OBSERVATIONS IN OUR AREA  *****

CITY           SKY/WX    TMP DP  RH WIND       PRES   REMARKS
WALHALLA       FAIR      63  63 100 NW10      29.73S
GRAFTON AIRPOR FAIR      68  57  68 W17       29.74F
VALLEY CITY AR FAIR      73  52  46 W13       29.78F
CANDO          CLOUDY    63  52  67 NW13G18   29.80F
CAVALIER APRT  MOCLDY    64  55  72 W14       29.72F
GWINNER        FAIR      77  52  41 SW14      29.76F
SHEYENNE NWR     N/A     79  51  36 W13       29.95S
ROLLA          MOCLDY    59  50  72 N10       29.80S
 ***** THE ABOVE OBSERVATIONS ARE NON NWS ARE NOT QUALITY
       CONTROLLED AND MAY MIS-REPORT RAIN FOR SNOW...
$$

  *****  WEATHER ACROSS NORTHERN MINNESOTA  *****

CITY           SKY/WX    TMP DP  RH WIND       PRES   REMARKS
FLAG ISLAND    PTSUNNY   64  57  77 S7        29.70S HAZE
WARROAD        MOSUNNY   68  57  68 SW14G21   29.72S
ROSEAU         MOSUNNY   70  57  64 SW15      29.71F
HALLOCK        MOSUNNY   70  55  60 W16G22    29.71S
THF RVR FALLS  PTSUNNY   70  55  60 SW13      29.76S
BAUDETTE       PTSUNNY   70  53  54 W13G21    29.73R
WASKISH        SUNNY     70  59  68 W9        29.75S
CROOKSTON      MOSUNNY   72  57  60 W15       29.74F
STEPHEN NDAWN    N/A     68  57  68 W9          N/A
GREENBUSH NDAW   N/A     68  57  68 SW15        N/A
$$
  *****  WEATHER ACROSS CENTRAL AND WEST MINNESOTA  *****

CITY           SKY/WX    TMP DP  RH WIND       PRES   REMARKS
FOSSTON        MOSUNNY   70  54  56 SW12G18   29.78S
BEMIDJI        SUNNY     72  54  54 W15G21    29.77R
PARK RAPIDS    MOSUNNY   74  49  41 W17G24    29.79S
ELBOW LAKE     FAIR      76  49  38 W6        29.77F
WADENA         SUNNY     73  50  43 W8        29.79F
DETROIT LAKES  MOSUNNY   72  54  53 W12G20    29.80F
MOORHEAD       SUNNY     73  54  49 W13G23    29.76F
FERGUS FALLS   SUNNY     75  50  41 W12       29.73F
MORRIS MN      SUNNY     79  48  34 NW16      29.73F
STAPLES        MOSUNNY   73  46  38 NW10G18   29.79F
$$
  *****  WEATHER ELSEWHERE ACROSS MINNESOTA  *****

CITY           SKY/WX    TMP DP  RH WIND       PRES   REMARKS
DULUTH         MOSUNNY   60  51  72 SE8       29.78F
INTRNTL FALLS  PTSUNNY   74  50  42 SW9G17    29.73S
ELY            SUNNY     72  52  49 SW10      29.77S
CLOQUET        MOSUNNY   66  55  68 E8        29.77F
WHEATON        SUNNY     79  52  38 W9G21     29.76F
BRAINERD       MOSUNNY   75  45  34 W17G23    29.78F
HIBBING        PTSUNNY   73  56  54 VRB5      29.76F
ALEXANDRIA     SUNNY     77  45  32 W12       29.80F
SAINT CLOUD    SUNNY     80  47  31 W12G21    29.78F
MINNEAPOLIS    MOSUNNY   80  50  34 W10       29.77F
$$

  *****  WEATHER ACROSS SOUTH DAKOTA  *****

CITY           SKY/WX    TMP DP  RH WIND       PRES   REMARKS
SIOUX FALLS    PTSUNNY   74  56  53 E8        29.79F
BROOKINGS      SUNNY     75  48  38 CALM      29.80F
WATERTOWN      SUNNY     76  49  38 W10       29.79F
HURON          SUNNY     77  51  40 MISG      29.75F
SISSETON         N/A     77  48  35 NW10G22   29.77F
ABERDEEN       MOSUNNY   78  52  40 SW8       29.78F
MITCHELL       MOSUNNY   76  54  46 SE7       29.76F
PIERRE         MOSUNNY   74  50  42 SW8       29.75F
MOBRIDGE       MOSUNNY   75  51  43 S12       29.75F
RAPID CITY     CLOUDY    61  52  72 E6        29.84S
$$

  *****  SOME WEATHER IN NEARBY STATES *****

CITY           SKY/WX    TMP DP  RH WIND       PRES   REMARKS
GLASGOW MT     PTSUNNY   60  53  77 NW14      29.80F
GREAT FALLS MT MOSUNNY   66  44  45 W5        29.90F
CHEYENNE WY    LGT RAIN  47  43  86 NW5       29.99F FOG
SCOTTSBLUFF NE CLOUDY    63  40  42 W17G29    29.89S
OMAHA NE       TSTM      66  62  87 SE23G30   29.88R FOG
DES MOINES IA  TSTM      76  66  71 S5        29.85R
DAVENPORT IA   CLOUDY    84  64  50 S9        29.81F
CHICAGO IL     PTSUNNY   82  63  52 SW9       29.83F
EAU CLAIRE WI  SUNNY     80  52  37 W9G22     29.76F
LA CROSSE WI   SUNNY     83  55  38 W8        29.78F
$$

  *****  SOME NATIONAL WEATHER *****

CITY           SKY/WX    TMP DP  RH WIND       PRES   REMARKS
LA GUARDIA NY  PTSUNNY   86  53  32 S17       30.02F
RALEIGH NC     MOSUNNY   86  63  45 SW9       30.08F
ATLANTA GA     MOSUNNY   86  60  41 S6        30.07F
NEW ORLEANS LA PTSUNNY   85  67  54 S14       30.00F
OKLAHOMA CITY  MOSUNNY   85  65  51 S23G36    29.73F
ALBUQUERQUE NM PTSUNNY   72  14  11 W17G31    29.85F
SALT LAKE CITY PTSUNNY   70  36  28 N9G20     29.94F
LOS ANGELES CA MOSUNNY   67  54  63 W15       30.02F
BOISE ID       PTSUNNY   73  34  23 VRB6      29.96F
SEATTLE WA     CLOUDY    59  44  57 SW12      30.18F
$$

*** WEATHER ACROSS MANITOBA...SASKATCHEWAN AND ONTARIO ***
                ***ONTARIO***

CITY           SKY/WX    TMP DP  RH WIND       PRES   REMARKS
GERALDTON      CLOUDY    61  50  67 SE12      29.80F
THUNDER BAY    CLOUDY    59  54  82 E5        29.80F
SIOUX LOOKOUT  PTSUNNY   64  57  77 SW3       29.75S
TORONTO        PTSUNNY   75  61  60 SE9       29.92F
BIG TROUT LK   MOSUNNY   70  46  43 SE6       29.77F
PICKLE LAKE    PTSUNNY   68  50  52 S15       29.75F
DRYDEN         CLOUDY    66  54  63 S10       29.73F
KENORA         PTSUNNY   66  55  68 SW10      29.72S
$$
                *** MANITOBA***

CITY           SKY/WX    TMP DP  RH WIND       PRES   REMARKS
BRANDON        LGT RAIN  59  55  88 NW12      29.77F
DAUPHIN        PTSUNNY   70  52  52 NE10      29.73F
ISLAND LAKE    PTSUNNY   66  54  63 E9        29.77R
PILOT MOUND      N/A     57  54  88 NW9         N/A
THE PAS        CLOUDY    75  41  29 N7        29.80S
THOMPSON       MOSUNNY   54  41  62 N18G31    29.92R
WINNIPEG       DRIZZLE   61  59  94 N12       29.67R
LYNN LAKE      SUNNY     52  36  54 NE20G25   30.00R
CHURCHILL      LGT SNOW  34  32  93 NE16G25   30.11R FOG     WCI  23
GILLAM         CLOUDY    46  39  76 N21       29.92R
$$
                ***SASKATCHEWAN***

CITY           SKY/WX    TMP DP  RH WIND       PRES   REMARKS
ESTEVAN        LGT RAIN  55  54  94 NE15      29.83S FOG
KINDERSLEY     PTSUNNY   66  43  42 S8        29.86F
LLOYDMINSTER   PTSUNNY   68  39  34 SE6       29.83F
PRINCE ALBERT  PTSUNNY   77  48  36 NE9       29.82F
REGINA         CLOUDY    59  50  72 S3        29.87F
YORKTON        SUNNY     72  50  46 NE9       29.78F
N. BATTLEFORD  SUNNY     72  43  35 VRB2      29.86F
LA RONGE       MOSUNNY   68  48  49 NE9       29.88S
SASKATOON      PTSUNNY   72  46  40 E6        29.86F
SWIFT CURRENT  PTSUNNY   61  48  63 E13       29.89F
$$
NOTE: THESE ARE AUTOMATED STATIONS WITH LIMITED QUALITY CONTROL
      "FAIR" INDICATES FEW OR NO CLOUDS BELOW 12,000 FEET WITH NO
      SIGNIFICANT WEATHER AND/OR OBSTRUCTIONS TO VISIBILITY.
      SKY/WX - SKY CONDITION AND SIGNIFICANT WEATHER.
      TMP - AIR TEMPERATURE.    DP   - DEWPOINT TEMPERATURE.
      RH  - RELATIVE HUMIDITY.  PRES - PRESSURE.
      HX  - HEAT INDEX.         WCI  - WIND CHILL INDEX.
$




USA.gov is the U.S. government's official web portal to all federal, state and local government web resources and services.